Terug naar catalogus

STARLINK-3813

ActiefCommunicatieVLEO
NORAD 52482·PAYLOAD·🇺🇸 United States

Gelanceerd May 6, 2022 vanaf Cape Canaveral Space Force Station

Loading…

Volgende Passages (komende 24 uur)

TLE

VersSource: CelesTrak SupGP

Epoch: Sep 14, 2026, 20:43 UTC

1 52482C 22049AH  26257.86368056  .00038835  00000+0  11787-2 0  2571
2 52482  53.1586 270.1493 0001323  84.6562 140.7571 15.33522349    10

Volg STARLINK-3813 in realtime met AllMySat

Download on the App Store